軌道要素
Epoch 2016 July 31.0 TT = JDT 2457600.5
T 2016 July 24.18589 TT MPCW
q 1.3397446 (2000.0) P Q
n 0.13894978 Peri. 27.43351 -0.93817532 +0.34593128
a 3.6917374 Node 172.77091 -0.33310726 -0.89230374
e 0.6370964 Incl. 5.74392 -0.09416270 -0.29004410
P 7.09
From 117 observations 2009 Apr. 24-2016 July 3, mean residual 0".5.
|